| time (UTC) | temp F | wind direction | speed MPH | gust MPH | rain 1hr in | rain 24hr in | rain mn in | humidity % | barometer mb |
| 20260831080134 | 75 | 165 | 2.0 | 8.0 | 0.00 | 0.00 | 0.00 | 72 | 1012.4 |
| 20260831074559 | 74 | 137 | 2.0 | 5.0 | 0.00 | 0.00 | 0.00 | 76 | 1012.5 |
| 20260831073133 | 72 | 151 | 2.0 | 5.0 | 0.00 | 0.00 | 0.00 | 77 | 1012.2 |
| 20260831071613 | 70 | 225 | 4.0 | 7.0 | 0.00 | 0.00 | 0.00 | 81 | 1012.4 |
| 20260831070001 | 70 | 134 | 1.0 | 4.0 | 0.00 | 0.00 | 0.00 | 82 | 1012.4 |
| 20260831064613 | 69 | 186 | 0.0 | 3.0 | 0.00 | 0.00 | 0.00 | 82 | 1012.1 |
| 20260831063137 | 68 | 24 | 0.0 | 5.0 | 0.00 | 0.00 | 0.00 | 81 | 1012.5 |
| 20260831061559 | 66 | 39 | 0.0 | 3.0 | 0.00 | 0.00 | 0.00 | 88 | 1012.4 |
| 20260831060002 | 64 | 258 | 0.0 | 3.0 | 0.00 | 0.00 | 0.00 | 89 | 1012.4 |
| 20260831054600 | 64 | 35 | 1.0 | 2.0 | 0.00 | 0.00 | 0.00 | 89 | 1012.4 |
| 20260831053131 | 63 | 35 | 1.0 | 2.0 | 0.00 | 0.00 | 0.00 | 90 | 1012.4 |
| 20260831051613 | 62 | 32 | 1.0 | 3.0 | 0.00 | 0.00 | 0.00 | 89 | 1012.2 |
| 20260831050002 | 62 | 262 | 4.0 | 6.0 | 0.00 | 0.00 | 0.00 | 89 | 1012.0 |
| 20260831044605 | 62 | 280 | 1.0 | 3.0 | 0.00 | 0.00 | 0.00 | 89 | 1011.9 |
| 20260831043144 | 62 | 281 | 2.0 | 4.0 | 0.00 | 0.00 | 0.00 | 89 | 1011.9 |
| 20260831041600 | 62 | 279 | 1.0 | 3.0 | 0.00 | 0.00 | 0.00 | 88 | 1011.7 |
| 20260831040002 | 62 | 334 | 0.0 | 2.0 | 0.00 | 0.00 | 0.00 | 88 | 1011.7 |
| 20260831034600 | 62 | 351 | 2.0 | 4.0 | 0.00 | 0.00 | 0.00 | 88 | 1011.7 |
| 20260831033142 | 63 | 295 | 0.0 | 2.0 | 0.00 | 0.00 | 0.00 | 88 | 1011.8 |
| 20260831031559 | 63 | 286 | 2.0 | 4.0 | 0.00 | 0.00 | 0.00 | 87 | 1011.8 |
| 20260831030135 | 63 | 317 | 1.0 | 3.0 | 0.00 | 0.00 | 0.00 | 87 | 1011.7 |
| 20260831024601 | 63 | 288 | 0.0 | 0.0 | 0.00 | 0.00 | 0.00 | 88 | 1011.8 |
| 20260831023127 | 63 | 288 | 0.0 | 1.0 | 0.00 | 0.00 | 0.00 | 87 | 1011.9 |
| 20260831021601 | 63 | 287 | 1.0 | 3.0 | 0.00 | 0.00 | 0.00 | 86 | 1012.0 |
| 20260831020004 | 64 | 290 | 1.0 | 2.0 | 0.00 | 0.00 | 0.00 | 86 | 1011.8 |
| 20260831014600 | 65 | 288 | 2.0 | 3.0 | 0.00 | 0.00 | 0.00 | 85 | 1012.0 |
| 20260831013136 | 65 | 325 | 0.0 | 2.0 | 0.00 | 0.00 | 0.00 | 84 | 1011.9 |
| 20260831011607 | 65 | 327 | 1.0 | 4.0 | 0.00 | 0.00 | 0.00 | 84 | 1012.0 |
| 20260831010003 | 65 | 306 | 0.0 | 0.0 | 0.00 | 0.00 | 0.00 | 86 | 1012.1 |
| 20260831004600 | 66 | 304 | 0.0 | 3.0 | 0.00 | 0.00 | 0.00 | 85 | 1012.0 |
| 20260831003123 | 66 | 307 | 0.0 | 2.0 | 0.00 | 0.00 | 0.00 | 85 | 1012.1 |
| 20260831001600 | 67 | 307 | 1.0 | 3.0 | 0.00 | 0.00 | 0.00 | 84 | 1012.2 |
| 20260831000001 | 67 | 340 | 0.0 | 2.0 | 0.00 | 0.00 | 0.00 | 84 | 1012.2 |
| 20260830234611 | 67 | 346 | 1.0 | 3.0 | 0.00 | 0.00 | 0.00 | 85 | 1012.4 |
| 20260830233147 | 67 | 330 | 1.0 | 2.0 | 0.00 | 0.00 | 0.00 | 85 | 1012.5 |
| 20260830231559 | 67 | 329 | 1.0 | 2.0 | 0.00 | 0.00 | 0.00 | 85 | 1012.5 |
| 20260830230006 | 66 | 329 | 1.0 | 3.0 | 0.00 | 0.00 | 0.00 | 84 | 1012.7 |
| 20260830224607 | 66 | 329 | 1.0 | 4.0 | 0.00 | 0.00 | 0.00 | 84 | 1012.8 |
| 20260830223129 | 67 | 330 | 1.0 | 3.0 | 0.00 | 0.00 | 0.00 | 84 | 1012.7 |
| 20260830221603 | 67 | 342 | 1.0 | 5.0 | 0.00 | 0.00 | 0.00 | 84 | 1012.7 |
| 20260830220001 | 66 | 351 | 0.0 | 1.0 | 0.00 | 0.00 | 0.00 | 85 | 1012.5 |
| 20260830214602 | 67 | 309 | 0.0 | 0.0 | 0.00 | 0.00 | 0.00 | 85 | 1012.4 |
| 20260830213133 | 67 | 309 | 0.0 | 0.0 | 0.00 | 0.00 | 0.00 | 84 | 1012.5 |
| 20260830211659 | 68 | 309 | 0.0 | 0.0 | 0.00 | 0.00 | 0.00 | 83 | 1012.4 |
| 20260830210000 | 68 | 265 | 0.0 | 0.0 | 0.00 | 0.00 | 0.00 | 84 | 1012.4 |
| 20260830204605 | 68 | 264 | 0.0 | 0.0 | 0.00 | 0.00 | 0.00 | 83 | 1012.4 |
| 20260830203001 | 69 | 264 | 0.0 | 0.0 | 0.00 | 0.00 | 0.00 | 82 | 1012.2 |
| 20260830201603 | 69 | 263 | 0.0 | 0.0 | 0.00 | 0.00 | 0.00 | 81 | 1012.2 |
| 20260830200001 | 70 | 265 | 0.0 | 0.0 | 0.00 | 0.00 | 0.00 | 80 | 1012.2 |
| 20260830194602 | 71 | 265 | 0.0 | 0.0 | 0.00 | 0.00 | 0.00 | 79 | 1012.2 |
| 20260830193131 | 71 | 265 | 0.0 | 0.0 | 0.00 | 0.00 | 0.00 | 79 | 1012.0 |
| 20260830191600 | 72 | 265 | 327.0 | 0.0 | 0.00 | 0.00 | 0.00 | 80 | 1012.0 |
| 20260830190133 | 72 | 327.0 | 255.0 | 0.00 | 0.00 | 0.00 | 79 | 1011.8 | |
| 20260830184610 | 72 | 327.0 | 255.0 | 0.00 | 0.00 | 0.00 | 79 | 1011.6 | |
| 20260830183121 | 72 | 327.0 | 255.0 | 0.00 | 0.00 | 0.00 | 78 | 1011.5 | |
| 20260830181603 | 72 | 327.0 | 255.0 | 0.00 | 0.00 | 0.00 | 77 | 1011.4 | |
| 20260830180001 | 74 | 327.0 | 255.0 | 0.00 | 0.00 | 0.00 | 75 | 1011.1 | |
| 20260830174602 | 75 | 327.0 | 255.0 | 0.00 | 0.00 | 0.00 | 73 | 1011.0 | |
| 20260830173140 | 76 | 327.0 | 255.0 | 0.00 | 0.00 | 0.00 | 72 | 1010.9 | |
| 20260830171604 | 77 | 327.0 | 255.0 | 0.00 | 0.00 | 0.00 | 73 | 1010.9 | |
| 20260830170005 | 79 | 327.0 | 255.0 | 0.00 | 0.00 | 0.00 | 69 | 1010.9 | |
| 20260830164601 | 81 | 327.0 | 255.0 | 0.00 | 0.00 | 0.00 | 67 | 1010.8 | |
| 20260830163135 | 83 | 327.0 | 255.0 | 0.00 | 0.00 | 0.00 | 60 | 1010.8 | |
| 20260830161700 | 86 | 327.0 | 255.0 | 0.00 | 0.00 | 0.00 | 53 | 1010.8 | |
| 20260830160006 | 87 | 327.0 | 255.0 | 0.00 | 0.00 | 0.00 | 47 | 1010.8 | |
| 20260830154501 | 86 | 327.0 | 255.0 | 0.00 | 0.00 | 0.00 | 47 | 1010.9 | |
| 20260830153001 | 86 | 327.0 | 255.0 | 0.00 | 0.00 | 0.00 | 45 | 1010.9 | |
| 20260830151611 | 86 | 327.0 | 255.0 | 0.00 | 0.00 | 0.00 | 46 | 1011.0 | |
| 20260830150002 | 85 | 327.0 | 255.0 | 0.00 | 0.00 | 0.00 | 45 | 1011.0 | |
| 20260830144619 | 86 | 327.0 | 255.0 | 0.00 | 0.00 | 0.00 | 46 | 1011.1 | |
| 20260830143138 | 87 | 327.0 | 255.0 | 0.00 | 0.00 | 0.00 | 48 | 1011.0 | |
| 20260830141600 | 87 | 327.0 | 255.0 | 0.00 | 0.00 | 0.00 | 49 | 1011.1 | |
| 20260830140001 | 86 | 327.0 | 255.0 | 0.00 | 0.00 | 0.00 | 48 | 1011.3 | |
| 20260830134601 | 85 | 327.0 | 255.0 | 0.00 | 0.00 | 0.00 | 52 | 1011.5 | |
| 20260830133127 | 85 | 327.0 | 255.0 | 0.00 | 0.00 | 0.00 | 52 | 1011.6 | |
| 20260830131601 | 85 | 327.0 | 255.0 | 0.00 | 0.00 | 0.00 | 51 | 1011.8 | |
| 20260830130002 | 84 | 327.0 | 255.0 | 0.00 | 0.00 | 0.00 | 51 | 1011.9 | |
| 20260830124601 | 84 | 327.0 | 255.0 | 0.00 | 0.00 | 0.00 | 53 | 1012.0 | |
| 20260830123123 | 84 | 327.0 | 255.0 | 0.00 | 0.00 | 0.00 | 53 | 1012.1 | |
| 20260830121607 | 83 | 130 | 1.0 | 5.0 | 0.00 | 0.00 | 0.00 | 54 | 1012.1 |
| 20260830120101 | 83 | 122 | 5.0 | 8.0 | 0.00 | 0.00 | 0.00 | 53 | 1012.4 |
| 20260830114613 | 83 | 123 | 1.0 | 9.0 | 0.00 | 0.00 | 0.00 | 54 | 1012.5 |
| 20260830113144 | 83 | 124 | 5.0 | 10.0 | 0.00 | 0.00 | 0.00 | 53 | 1012.5 |
| 20260830111559 | 83 | 90 | 1.0 | 10.0 | 0.00 | 0.00 | 0.00 | 55 | 1012.6 |
| 20260830110126 | 82 | 122 | 4.0 | 10.0 | 0.00 | 0.00 | 0.00 | 55 | 1012.8 |
| 20260830104559 | 82 | 124 | 2.0 | 5.0 | 0.00 | 0.00 | 0.00 | 55 | 1012.8 |
| 20260830103126 | 82 | 116 | 4.0 | 10.0 | 0.00 | 0.00 | 0.00 | 54 | 1012.9 |
| 20260830101606 | 82 | 126 | 2.0 | 8.0 | 0.00 | 0.00 | 0.00 | 57 | 1013.0 |
| 20260830100136 | 82 | 138 | 5.0 | 8.0 | 0.00 | 0.00 | 0.00 | 56 | 1013.3 |
| 20260830094609 | 81 | 107 | 5.0 | 9.0 | 0.00 | 0.00 | 0.00 | 54 | 1013.3 |
| 20260830093120 | 80 | 96 | 3.0 | 8.0 | 0.00 | 0.00 | 0.00 | 56 | 1013.3 |
| 20260830091557 | 80 | 126 | 3.0 | 7.0 | 0.00 | 0.00 | 0.00 | 58 | 1013.4 |
| 20260830090128 | 78 | 94 | 1.0 | 6.0 | 0.00 | 0.00 | 0.00 | 60 | 1013.4 |
| 20260830084558 | 77 | 179 | 1.0 | 6.0 | 0.00 | 0.00 | 0.00 | 61 | 1013.4 |
| 20260830083135 | 76 | 189 | 1.0 | 4.0 | 0.00 | 0.00 | 0.00 | 64 | 1013.4 |
| 20260830081621 | 75 | 159 | 2.0 | 6.0 | 0.00 | 0.00 | 0.00 | 62 | 1013.5 |